Weather History for KGYI - March, 2013

Change the Weather History Date:

Tuesday, March 5, 2013

  Actual Average (KDFW) Record (KDFW)
Temperature  
Mean Temperature 46 °F 55 °F  
Max Temperature 53 °F 65 °F 96 °F (1991)
Min Temperature 37 °F 44 °F 20 °F (1989)
Degree Days  
Heating Degree Days 19 11  
Month to date heating degree days 58  
Since 1 July heating degree days 1990  
Cooling Degree Days 0 1  
Month to date cooling degree days 3  
Year to date cooling degree days 10  
Moisture  
Dew Point 24 °F    
Average Humidity 44    
Maximum Humidity 71    
Minimum Humidity 26    
Precipitation  
Precipitation 0.00 in 0.12 in 1.60 in (1933)
Month to date precipitation 0.55  
Year to date precipitation 5.34  
Snow  
Snow 0.00 in 0.00 in 1.70 in (1954)
Month to date snowfall 0.0  
Since 1 July snowfall 1.0  
Snow Depth -    
Sea Level Pressure  
Sea Level Pressure 30.26 in    
Wind  
Wind Speed 19 mph (NNW)    
Max Wind Speed 32 mph    
Max Gust Speed 43 mph    
Visibility 10 miles    
Events      
T = Trace of Precipitation, MM = Missing Value Source: NWS Daily Summary

Daily Weather History Graph

Daily Weather History Graph

Search for Another Location

Airport or City:

Trip Planner

Search our weather history database for the weather conditions in past years. The results will help you decide how hot, cold, wet, or windy it might be!

Date:

Astronomy

Mar. 05, 2013 Rise Set
Actual Time 6:49 AM CST 6:26 PM CST
Civil Twilight 6:24 AM CST 6:51 PM CST
Nautical Twilight 5:56 AM CST 7:20 PM CST
Astronomical Twilight 5:27 AM CST 7:49 PM CST
Moon 1:50 AM CST (3/5) 12:19 PM CST (3/5)
Length of Visible Light 12h 26m
Length of Day
11h 37m
Last Quarter, 40% of the Moon is Illuminated
Mar 5
Last Quarter
Mar 11
New
Mar 19
First Quarter
Mar 27
Full
Apr 2
Last Quarter

Hourly Weather History & Observations

Time (CST) Temp. Windchill Dew Point Humidity Pressure Visibility Wind Dir Wind Speed Gust Speed Precip Events Conditions
12:15 AM 50.0 °F - 37.4 °F 62% 29.88 in 10.0 mi North 19.6 mph 27.6 mph N/A   Clear
12:35 AM 46.4 °F 37.9 °F 37.4 °F 71% 29.90 in 10.0 mi North 25.3 mph 35.7 mph N/A   Clear
12:55 AM 46.4 °F 39.0 °F 37.4 °F 71% 29.92 in 10.0 mi North 19.6 mph 32.2 mph N/A   Clear
1:15 AM 46.4 °F 38.7 °F 35.6 °F 66% 29.97 in 10.0 mi NNW 20.7 mph 27.6 mph N/A   Clear
1:55 AM 46.4 °F 37.9 °F 33.8 °F 62% 30.03 in 10.0 mi NNW 25.3 mph 40.3 mph N/A   Scattered Clouds
2:15 AM 46.4 °F 37.9 °F 33.8 °F 62% 30.03 in 10.0 mi North 25.3 mph 40.3 mph N/A   Clear
2:35 AM 46.4 °F 39.2 °F 32.0 °F 57% 30.05 in 10.0 mi North 18.4 mph 33.4 mph N/A   Clear
2:55 AM 46.4 °F 38.5 °F 32.0 °F 57% 30.05 in 10.0 mi North 21.9 mph 33.4 mph N/A   Scattered Clouds
3:15 AM 46.4 °F 38.3 °F 32.0 °F 57% 30.07 in 10.0 mi North 23.0 mph 29.9 mph N/A   Scattered Clouds
3:35 AM 44.6 °F 36.4 °F 32.0 °F 61% 30.08 in 10.0 mi North 20.7 mph 28.8 mph N/A   Clear
3:55 AM 44.6 °F 36.9 °F 33.8 °F 66% 30.10 in 10.0 mi NNW 18.4 mph 34.5 mph N/A   Clear
4:15 AM 44.6 °F 34.4 °F 32.0 °F 61% 30.12 in 10.0 mi NNW 32.2 mph 42.6 mph N/A   Clear
4:35 AM 44.6 °F 35.5 °F 32.0 °F 61% 30.14 in 10.0 mi NNW 25.3 mph 34.5 mph N/A   Clear
4:55 AM 42.8 °F 33.5 °F 32.0 °F 66% 30.14 in 10.0 mi North 23.0 mph 34.5 mph N/A   Clear
5:15 AM 42.8 °F 33.8 °F 30.2 °F 61% 30.16 in 10.0 mi North 21.9 mph 33.4 mph N/A   Clear
5:35 AM 42.8 °F 35.4 °F 30.2 °F 61% 30.19 in 10.0 mi North 15.0 mph 26.5 mph N/A   Clear
5:55 AM 41.0 °F 32.8 °F 30.2 °F 65% 30.20 in 10.0 mi NNW 16.1 mph - N/A   Clear
6:15 AM 41.0 °F 32.5 °F 30.2 °F 65% 30.22 in 10.0 mi NNW 17.3 mph 26.5 mph N/A   Clear
6:55 AM 41.0 °F 32.8 °F 30.2 °F 65% 30.24 in 10.0 mi NNW 16.1 mph 20.7 mph N/A   Clear
7:15 AM 41.0 °F 33.5 °F 30.2 °F 65% 30.25 in 10.0 mi NNW 13.8 mph 17.3 mph N/A   Clear
7:35 AM 41.0 °F 33.9 °F 28.4 °F 61% 30.26 in 10.0 mi NNW 12.7 mph - N/A   Clear
7:55 AM 41.0 °F 31.9 °F 26.6 °F 57% 30.27 in 10.0 mi NNW 19.6 mph 27.6 mph N/A   Clear
8:15 AM 42.8 °F 34.0 °F 21.2 °F 42% 30.28 in 10.0 mi NNW 20.7 mph 27.6 mph N/A   Clear
8:35 AM 42.8 °F 33.8 °F 23.0 °F 46% 30.29 in 10.0 mi NNW 21.9 mph 27.6 mph N/A   Clear
8:55 AM 42.8 °F 33.5 °F 23.0 °F 46% 30.30 in 10.0 mi NNW 23.0 mph 27.6 mph N/A   Clear
9:15 AM 42.8 °F 33.8 °F 21.2 °F 42% 30.31 in 10.0 mi NNW 21.9 mph 25.3 mph N/A   Clear
9:35 AM 44.6 °F 36.6 °F 21.2 °F 39% 30.33 in 10.0 mi NNW 19.6 mph 26.5 mph N/A   Clear
9:55 AM 44.6 °F 37.2 °F 19.4 °F 37% 30.34 in 10.0 mi North 17.3 mph 31.1 mph N/A   Clear
10:15 AM 44.6 °F 35.7 °F 19.4 °F 37% 30.34 in 10.0 mi NNW 24.2 mph 29.9 mph N/A   Clear
10:35 AM 46.4 °F 38.3 °F 19.4 °F 34% 30.34 in 10.0 mi North 23.0 mph 32.2 mph N/A   Clear
10:55 AM 46.4 °F 38.7 °F 19.4 °F 34% 30.34 in 10.0 mi NNW 20.7 mph 26.5 mph N/A   Clear
11:15 AM 46.4 °F 40.1 °F 21.2 °F 37% 30.35 in 10.0 mi NNW 15.0 mph 25.3 mph N/A   Clear
11:35 AM 46.4 °F 39.0 °F 19.4 °F 34% 30.35 in 10.0 mi NNW 19.6 mph 26.5 mph N/A   Clear
11:55 AM 50.0 °F - 19.4 °F 30% 30.36 in 10.0 mi NW 18.4 mph 23.0 mph N/A   Clear
12:15 PM 50.0 °F - 17.6 °F 28% 30.35 in 10.0 mi WNW 18.4 mph 25.3 mph N/A   Clear
12:35 PM 50.0 °F - 17.6 °F 28% 30.35 in 10.0 mi NW 18.4 mph 26.5 mph N/A   Clear
12:55 PM 50.0 °F - 17.6 °F 28% 30.34 in 10.0 mi NW 21.9 mph 27.6 mph N/A   Clear
1:15 PM 51.8 °F - 17.6 °F 26% 30.33 in 10.0 mi NW 19.6 mph 27.6 mph N/A   Clear
1:35 PM 51.8 °F - 17.6 °F 26% 30.33 in 10.0 mi NW 21.9 mph 27.6 mph N/A   Clear
1:55 PM 51.8 °F - 19.4 °F 28% 30.32 in 10.0 mi NW 23.0 mph 28.8 mph N/A   Clear
2:15 PM 53.6 °F - 19.4 °F 26% 30.31 in 10.0 mi NNW 17.3 mph 26.5 mph N/A   Clear
2:35 PM 53.6 °F - 19.4 °F 26% 30.31 in 10.0 mi North 19.6 mph 26.5 mph N/A   Clear
2:55 PM 53.6 °F - 19.4 °F 26% 30.31 in 10.0 mi NW 20.7 mph 26.5 mph N/A   Clear
3:15 PM 53.6 °F - 19.4 °F 26% 30.30 in 10.0 mi NNW 17.3 mph 25.3 mph N/A   Clear
3:35 PM 53.6 °F - 19.4 °F 26% 30.30 in 10.0 mi NW 16.1 mph 21.9 mph N/A   Clear
3:55 PM 53.6 °F - 19.4 °F 26% 30.30 in 10.0 mi NW 20.7 mph 24.2 mph N/A   Clear
4:15 PM 53.6 °F - 19.4 °F 26% 30.30 in 10.0 mi NW 16.1 mph 19.6 mph N/A   Clear
4:35 PM 53.6 °F - 19.4 °F 26% 30.30 in 10.0 mi WNW 15.0 mph 20.7 mph N/A   Clear
4:55 PM 53.6 °F - 19.4 °F 26% 30.30 in 10.0 mi NW 17.3 mph - N/A   Clear
5:15 PM 51.8 °F - 17.6 °F 26% 30.30 in 10.0 mi NW 16.1 mph 21.9 mph N/A   Clear
5:35 PM 51.8 °F - 19.4 °F 28% 30.31 in 10.0 mi NW 13.8 mph - N/A   Clear
5:55 PM 50.0 °F - 19.4 °F 30% 30.31 in 10.0 mi NW 12.7 mph - N/A   Clear
6:15 PM 50.0 °F - 21.2 °F 32% 30.32 in 10.0 mi NW 11.5 mph - N/A   Clear
6:35 PM 46.4 °F 43.5 °F 21.2 °F 37% 30.33 in 10.0 mi NNW 5.8 mph - N/A   Clear
6:55 PM 44.6 °F 40.7 °F 21.2 °F 39% 30.33 in 10.0 mi NNW 6.9 mph - N/A   Clear
7:15 PM 42.8 °F 40.1 °F 19.4 °F 39% 30.34 in 10.0 mi NNW 4.6 mph - N/A   Clear
7:35 PM 41.0 °F 37.1 °F 21.2 °F 45% 30.34 in 10.0 mi NW 5.8 mph - N/A   Clear
7:55 PM 41.0 °F 38.0 °F 21.2 °F 45% 30.35 in 10.0 mi NNW 4.6 mph - N/A   Clear
8:15 PM 41.0 °F - 21.2 °F 45% 30.35 in 10.0 mi Calm Calm - N/A   Clear
8:35 PM 42.8 °F - 19.4 °F 39% 30.35 in 10.0 mi Calm Calm - N/A   Clear
8:55 PM 41.0 °F - 19.4 °F 42% 30.35 in 10.0 mi Calm Calm - N/A   Clear
9:15 PM 41.0 °F 38.0 °F 19.4 °F 42% 30.36 in 10.0 mi NW 4.6 mph - N/A   Clear
9:35 PM 39.2 °F 33.0 °F 23.0 °F 52% 30.36 in 10.0 mi NNW 9.2 mph - N/A   Clear
9:55 PM 41.0 °F 34.7 °F 21.2 °F 45% 30.36 in 10.0 mi North 10.4 mph - N/A   Clear
10:15 PM 41.0 °F 34.7 °F 21.2 °F 45% 30.37 in 10.0 mi NNW 10.4 mph - N/A   Clear
10:35 PM 41.0 °F 34.3 °F 21.2 °F 45% 30.38 in 10.0 mi NNW 11.5 mph 16.1 mph N/A   Clear
10:55 PM 41.0 °F 33.9 °F 21.2 °F 45% 30.37 in 10.0 mi North 12.7 mph - N/A   Clear
11:15 PM 41.0 °F 34.7 °F 23.0 °F 49% 30.37 in 10.0 mi North 10.4 mph - N/A   Clear
11:35 PM 41.0 °F 34.7 °F 23.0 °F 49% 30.39 in 10.0 mi North 10.4 mph - N/A   Clear
11:55 PM 37.4 °F 32.1 °F 23.0 °F 56% 30.39 in 10.0 mi NNW 6.9 mph - N/A   Clear